Wind_Speed
5 4 4 3 2 2 4 5 5 5 5 5 5 5 5 4 2 2 1 3 3 5 7 8 9 9 10 11 12 12 13 13 13 12 11 10 8 6 4 3 2 2 2 2 3 3 3 4 5
4 2 3 2 2 5 5 4 4 4 4 4 5 5 5 4 2 1 2 3 3 4 5 7 7 8 8 9 10 11 11 12 12 12 12 11 10 8 6 4 2 2 2 2 2 3 3 4 5
3 2 3 1 4 5 4 4 3 3 4 4 5 5 4 4 3 1 2 4 4 3 4 5 6 7 7 7 8 9 9 10 11 11 11 11 10 9 8 6 4 2 1 1 2 2 3 3 5
2 2 3 4 5 4 4 3 3 3 3 4 5 4 4 4 2 1 2 4 4 4 3 4 5 5 5 6 6 7 7 8 9 9 10 10 10 10 9 8 6 4 2 1 0 1 2 3 4
3 2 3 4 3 3 3 3 3 3 3 4 4 4 4 3 2 1 2 4 5 5 4 3 3 3 4 4 5 5 6 6 7 7 8 8 9 9 9 8 8 6 5 3 1 0 1 2 4
3 3 3 2 2 1 1 2 2 3 3 4 4 3 3 3 2 0 2 4 5 5 5 4 3 2 2 2 3 3 4 4 5 5 5 6 7 8 8 9 9 8 7 5 3 1 1 2 3
4 3 3 2 3 2 2 3 3 3 3 3 4 3 3 2 1 0 1 3 4 5 5 4 4 3 2 1 0 1 2 3 3 3 3 4 5 6 6 7 8 8 8 6 5 3 2 2 2
6 5 5 4 5 5 4 4 4 4 3 4 4 4 2 2 1 1 1 2 4 5 5 5 5 5 5 4 3 3 2 2 2 3 3 4 4 5 5 6 7 7 7 7 5 4 3 2 2
8 7 6 7 8 8 8 7 6 6 6 6 6 5 3 3 2 2 2 2 3 3 4 5 6 7 7 7 7 6 6 5 5 5 5 5 5 5 6 6 6 6 6 6 5 4 4 3 3
11 10 9 11 12 11 12 11 10 10 10 10 9 7 6 5 5 5 4 4 4 4 5 5 6 7 7 8 9 9 9 9 9 8 8 7 7 7 8 7 6 6 6 5 5 5 4 4 3
15 15 14 14 16 14 15 14 14 14 13 12 12 11 9 9 9 8 8 8 7 7 7 7 7 7 8 9 10 11 12 12 12 12 11 10 9 9 10 9 8 7 6 6 6 5 5 5 5
16 17 17 18 18 17 18 18 17 18 17 15 15 15 14 13 13 12 12 11 11 10 10 10 9 9 10 11 12 13 13 14 14 14 14 13 13 12 12 11 11 10 9 8 7 7 7 6 6
17 18 18 19 19 20 21 21 21 21 20 19 19 19 19 18 17 17 16 15 15 14 14 14 13 13 13 14 14 14 15 16 16 16 16 16 16 15 14 13 13 12 12 11 10 9 8 7 7
18 19 19 21 22 23 23 24 25 24 23 23 23 23 23 22 21 20 20 19 19 18 17 17 17 16 16 16 16 16 17 18 17 18 18 18 18 17 17 16 15 15 14 14 13 12 11 10 9
20 21 22 24 25 26 26 28 29 27 26 27 26 27 26 25 24 25 24 23 22 21 20 20 19 19 19 19 19 19 18 19 19 19 20 19 20 20 19 18 17 17 17 16 15 15 14 12 12
23 24 24 26 28 29 29 32 32 30 30 30 30 30 29 29 28 29 28 27 26 25 24 23 22 23 22 22 21 21 20 19 20 20 21 21 21 22 21 20 20 20 19 18 18 17 16 15 14
24 25 25 26 28 30 30 33 35 34 34 34 34 33 32 33 32 32 31 30 29 29 28 27 26 26 25 24 24 23 22 21 21 21 21 22 22 22 22 22 23 22 21 21 20 19 19 18 16
25 27 26 27 31 33 34 36 36 37 37 38 37 37 37 37 36 35 34 34 33 32 32 31 30 28 28 27 27 27 26 25 24 22 22 23 23 23 23 24 25 24 24 23 22 21 21 20 20
26 28 30 32 35 38 38 38 39 41 41 41 41 41 41 41 40 39 38 37 37 37 36 36 34 32 32 31 31 30 30 29 27 25 24 24 24 25 24 26 27 27 26 26 25 24 23 22 22
28 30 32 34 36 38 39 39 41 40 41 42 41 42 43 42 41 41 40 39 39 40 39 39 39 37 36 35 35 35 35 33 32 29 27 26 27 27 27 27 29 29 28 27 27 26 25 24 24
28 31 33 35 35 37 38 39 39 40 39 41 40 41 42 41 41 40 40 39 39 39 40 39 39 39 38 37 37 37 37 37 35 34 32 30 29 30 29 29 29 29 30 30 29 28 26 26 25
28 31 33 34 36 36 36 36 32 37 40 41 39 40 40 39 38 38 37 37 37 37 38 38 38 39 38 38 37 38 38 39 38 37 36 34 33 32 33 33 32 31 31 31 31 29 28 27 26
29 31 32 33 34 34 32 32 32 34 37 38 37 37 36 35 35 35 34 33 34 34 34 35 35 36 37 37 37 38 39 40 39 39 40 38 37 36 37 36 35 34 33 33 31 30 30 28 27
30 30 30 30 28 26 24 23 30 34 37 38 37 36 34 33 34 33 32 32 32 33 33 33 34 35 36 37 37 37 39 40 41 41 41 40 40 40 40 38 35 35 34 33 31 30 30 29 27
27 27 26 21 16 17 18 22 28 33 36 37 37 36 35 35 34 33 33 32 33 33 33 33 33 34 35 36 37 38 39 40 41 41 42 43 43 42 40 39 38 35 33 32 31 30 29 27 26
24 24 23 19 14 13 15 19 21 25 29 33 36 36 35 35 33 32 32 32 32 33 32 33 34 35 36 36 37 38 38 40 40 40 41 42 41 39 39 38 37 34 31 30 30 29 27 25 24
22 21 19 16 12 11 12 16 19 21 22 23 26 30 31 30 30 31 31 30 30 31 31 31 32 33 34 35 35 36 37 37 38 38 40 39 39 37 37 36 33 31 29 29 30 27 24 23 24
21 21 18 14 11 9 9 12 14 15 18 18 19 19 21 23 24 26 28 28 28 29 29 29 30 30 30 30 31 31 32 33 34 34 35 36 35 34 33 32 30 29 27 26 25 23 22 22 24
20 20 18 15 12 9 9 11 13 14 13 13 12 12 13 14 15 16 19 22 23 24 24 25 25 25 25 25 25 26 27 27 27 27 27 28 27 26 25 24 22 22 21 20 20 21 21 22 23
20 19 18 17 16 14 12 13 13 12 11 8 6 5 7 9 11 11 12 13 14 16 17 17 18 18 18 18 18 19 19 19 18 17 16 15 15 13 13 13 14 15 16 18 19 20 21 22 23
Wind_Direction
88 85 94 108 124 119 73 62 47 27 10 360 348 340 339 359 346 233 237 164 123 101 95 96 95 94 90 85 79 73 69 65 63 61 61 61 62 66 72 83 100 120 150 172 182 187 187 190 194
98 101 93 116 93 92 77 66 48 23 0 352 343 346 352 359 342 265 215 184 159 119 103 100 97 95 92 87 81 76 70 67 63 61 60 60 60 60 60 62 73 105 146 170 183 191 199 203 208
118 119 92 102 81 79 74 66 50 20 353 341 333 340 350 355 344 280 209 197 179 149 116 106 101 96 92 86 80 75 71 67 63 60 58 57 56 55 53 50 48 50 91 165 184 195 207 215 220
142 123 104 79 75 68 59 51 42 15 347 333 328 335 338 347 342 271 212 198 189 177 144 119 111 103 97 90 82 74 68 65 62 57 53 51 51 50 48 45 41 34 29 30 176 207 216 229 235
170 149 86 67 62 57 49 26 15 4 351 341 336 338 340 346 340 272 207 193 191 193 181 156 132 115 102 93 84 73 64 59 55 50 46 45 44 42 40 39 37 34 30 25 17 286 238 244 245
195 148 89 27 347 23 9 333 332 332 336 335 331 337 346 350 354 298 198 188 191 202 202 197 188 167 122 98 84 70 59 50 43 37 35 33 31 31 31 32 32 32 31 29 23 8 298 265 256
205 182 170 228 267 272 284 296 303 308 316 322 321 328 343 349 1 8 199 190 190 204 211 218 224 231 238 243 306 38 36 31 21 15 11 8 8 10 15 21 24 27 28 28 27 21 357 297 267
211 216 206 230 246 250 252 260 272 277 282 290 298 309 324 342 354 341 238 207 198 209 219 230 243 252 259 263 268 279 298 316 323 329 332 331 333 338 343 357 9 17 21 22 23 20 5 338 309
221 223 225 244 242 245 246 244 250 257 261 263 267 276 283 299 302 302 282 252 229 223 229 238 249 258 265 270 272 274 279 283 285 290 293 295 299 305 310 323 340 355 4 8 11 13 360 345 335
229 229 230 240 245 243 244 244 247 251 254 256 258 260 267 274 277 281 281 277 266 253 246 248 254 263 269 273 277 280 281 281 279 278 276 275 278 282 287 295 311 327 336 342 348 355 348 334 327
238 238 239 242 249 248 248 249 250 252 254 258 261 259 260 266 266 269 271 272 273 273 268 263 267 273 278 281 284 286 286 282 279 276 273 270 268 269 275 281 290 301 310 319 320 323 329 323 319
249 249 248 249 252 251 252 254 254 257 260 263 265 266 265 264 265 266 267 268 269 272 273 274 276 280 284 288 288 290 290 287 283 279 274 270 268 267 267 272 279 286 290 295 301 307 313 311 310
257 258 258 258 257 256 256 257 257 258 261 263 265 267 268 267 267 268 269 270 270 272 273 276 279 282 285 288 289 291 290 289 286 282 278 273 270 267 265 266 270 276 280 283 287 293 300 301 300
267 268 267 264 263 262 261 260 260 259 260 262 264 265 266 268 270 271 270 270 271 271 273 276 279 281 284 287 289 290 289 287 286 283 281 277 272 269 266 266 267 270 274 276 278 283 288 289 289
270 270 269 269 268 266 266 265 263 264 264 264 265 265 267 269 270 270 270 271 271 270 272 275 277 279 282 284 287 288 288 287 285 282 280 277 274 270 267 266 266 268 270 272 273 276 279 282 282
271 271 272 273 272 270 269 268 266 267 268 268 267 268 268 269 269 269 270 273 273 274 274 273 275 277 280 281 284 286 286 287 286 284 281 278 275 272 269 266 265 266 268 269 270 271 270 274 277
271 272 273 272 273 273 270 270 271 269 270 270 269 268 268 267 267 269 271 272 273 273 272 273 275 277 278 280 281 282 283 284 285 286 282 278 276 274 271 267 264 264 265 267 268 267 266 268 271
275 275 271 269 269 269 271 274 274 272 271 271 270 270 269 267 267 266 267 269 270 271 272 273 273 275 277 278 280 281 280 280 282 286 283 280 279 276 273 269 263 261 262 263 265 263 263 266 267
279 276 273 270 271 272 274 276 276 275 275 272 271 271 270 268 268 266 266 266 267 268 269 271 273 274 275 277 277 277 278 279 280 283 285 282 280 278 275 271 267 261 259 261 263 261 261 264 266
284 281 278 275 275 277 277 276 277 276 274 273 271 270 268 268 267 267 266 265 265 266 267 268 270 271 272 272 273 275 276 277 278 280 282 282 282 281 277 274 272 264 258 260 259 258 260 262 265
290 285 284 284 282 280 279 277 277 275 272 271 271 269 269 268 266 266 265 264 263 263 264 265 267 269 269 269 269 271 274 276 277 278 278 280 284 285 281 278 275 268 260 257 255 255 257 258 262
296 293 293 290 286 281 277 275 271 271 270 269 269 268 268 266 265 264 264 262 261 261 262 264 265 266 268 268 268 269 273 274 275 278 279 282 283 286 287 285 277 271 265 259 254 253 256 257 261
303 299 297 294 290 284 277 269 263 264 264 263 264 265 264 265 264 263 262 261 260 259 260 261 262 264 266 267 268 269 270 271 272 275 278 278 281 283 286 287 280 274 269 261 255 251 253 256 258
312 308 305 300 295 287 280 267 260 256 257 257 259 261 260 263 263 263 260 259 258 258 259 260 261 263 264 267 268 269 269 269 272 273 275 277 281 283 283 283 282 277 269 261 257 253 253 255 257
322 321 320 314 300 286 273 258 258 257 254 255 256 258 259 261 261 260 258 257 257 258 259 260 262 263 264 266 268 269 269 268 270 271 273 276 279 281 280 280 280 276 268 262 256 252 251 254 256
333 332 329 325 307 283 267 262 262 260 260 259 259 261 262 262 260 259 258 257 257 258 258 259 261 263 265 266 267 268 269 268 268 269 271 274 278 280 280 280 279 272 263 259 252 248 251 252 258
346 346 343 336 325 301 283 273 271 271 271 267 263 260 261 262 259 257 256 256 256 256 258 259 262 264 266 268 268 268 268 269 269 269 272 274 275 277 279 277 271 265 258 250 246 246 250 255 259
357 358 356 355 350 335 309 300 301 293 288 284 283 272 263 262 261 259 257 255 254 255 257 259 262 265 266 267 266 267 268 269 268 269 268 270 271 273 272 265 262 257 250 246 246 246 251 256 260
7 8 12 14 6 350 334 331 329 318 307 298 292 281 269 266 266 263 260 257 257 256 257 258 261 263 263 264 265 267 267 266 267 268 268 268 266 263 261 256 251 247 245 245 247 250 254 257 261
17 18 20 23 23 16 4 355 342 338 337 331 306 278 274 271 270 268 268 264 257 255 257 258 258 260 261 263 265 267 263 262 264 263 259 256 249 247 249 243 243 244 247 251 253 254 256 259 262
Height
5903 5903 5903 5904 5905 5904 5904 5904 5904 5904 5904 5904 5903 5903 5903 5904 5905 5907 5906 5905 5905 5905 5905 5905 5905 5905 5904 5904 5903 5902 5902 5900 5899 5898 5897 5896 5896 5895 5894 5894 5894 5894 5895 5895 5896 5897 5898 5899 5900
5904 5904 5905 5905 5905 5904 5905 5905 5905 5905 5905 5904 5904 5904 5904 5904 5904 5904 5905 5906 5906 5906 5906 5906 5906 5906 5906 5905 5905 5904 5903 5902 5901 5900 5899 5898 5897 5897 5896 5895 5895 5895 5895 5896 5896 5897 5898 5899 5900
5905 5905 5906 5906 5905 5906 5906 5906 5906 5905 5905 5905 5905 5905 5905 5905 5905 5905 5905 5906 5907 5907 5907 5907 5907 5907 5907 5906 5906 5905 5905 5904 5903 5902 5901 5900 5899 5898 5897 5896 5896 5896 5896 5896 5897 5897 5898 5899 5899
5906 5907 5907 5907 5906 5907 5907 5907 5907 5906 5906 5906 5906 5906 5905 5905 5905 5905 5905 5906 5907 5907 5908 5907 5907 5907 5907 5907 5907 5906 5906 5905 5905 5904 5903 5902 5901 5900 5899 5898 5897 5897 5896 5896 5897 5897 5898 5898 5899
5906 5907 5908 5907 5907 5908 5907 5907 5907 5907 5906 5906 5906 5906 5906 5906 5905 5905 5905 5906 5907 5908 5908 5908 5908 5908 5908 5908 5907 5907 5907 5907 5906 5906 5905 5904 5903 5902 5901 5899 5898 5897 5897 5897 5897 5897 5897 5897 5898
5907 5908 5909 5908 5908 5909 5909 5908 5908 5908 5907 5906 5906 5906 5906 5906 5906 5905 5905 5906 5907 5907 5908 5908 5908 5908 5908 5908 5908 5908 5908 5907 5907 5907 5906 5906 5905 5904 5902 5901 5900 5899 5898 5897 5897 5897 5897 5897 5897
5908 5909 5908 5908 5909 5909 5909 5909 5909 5908 5908 5907 5907 5907 5906 5906 5906 5906 5905 5906 5906 5907 5907 5907 5908 5908 5908 5908 5908 5908 5908 5908 5908 5907 5907 5907 5906 5905 5904 5903 5901 5900 5899 5898 5898 5897 5897 5897 5896
5907 5909 5908 5908 5908 5909 5909 5909 5909 5909 5908 5908 5907 5907 5907 5907 5906 5906 5906 5906 5906 5906 5907 5907 5907 5908 5908 5908 5908 5908 5908 5908 5908 5907 5907 5907 5906 5906 5905 5904 5903 5901 5900 5899 5898 5898 5897 5897 5896
5906 5908 5907 5907 5907 5908 5908 5908 5908 5908 5908 5907 5907 5907 5907 5907 5907 5906 5906 5906 5906 5906 5906 5906 5907 5907 5907 5907 5907 5907 5907 5907 5907 5907 5906 5906 5906 5905 5905 5904 5903 5902 5901 5900 5899 5898 5898 5897 5896
5905 5906 5906 5907 5906 5906 5906 5907 5907 5907 5906 5906 5906 5906 5906 5907 5907 5906 5906 5906 5905 5906 5906 5906 5906 5906 5906 5906 5906 5906 5906 5906 5906 5906 5905 5905 5905 5905 5904 5904 5903 5903 5902 5901 5900 5899 5898 5897 5896
5902 5903 5904 5904 5904 5905 5905 5905 5905 5905 5904 5905 5905 5905 5905 5905 5905 5905 5905 5905 5905 5905 5905 5905 5905 5904 5904 5904 5904 5904 5904 5904 5904 5904 5904 5904 5903 5903 5903 5902 5902 5902 5901 5901 5900 5899 5898 5897 5897
5900 5901 5901 5902 5902 5903 5903 5903 5903 5902 5903 5903 5903 5902 5903 5903 5903 5903 5903 5903 5903 5903 5903 5903 5903 5903 5903 5902 5902 5902 5902 5901 5901 5901 5901 5901 5901 5901 5901 5901 5901 5900 5900 5900 5899 5899 5898 5898 5897
5897 5898 5898 5899 5899 5900 5900 5900 5900 5900 5901 5900 5900 5900 5900 5900 5900 5900 5900 5900 5900 5901 5900 5900 5900 5901 5901 5900 5900 5899 5899 5899 5899 5898 5898 5898 5898 5898 5898 5898 5898 5898 5898 5898 5898 5898 5897 5897 5896
5895 5895 5895 5896 5896 5896 5896 5896 5896 5896 5897 5897 5897 5896 5896 5896 5896 5896 5896 5896 5897 5897 5897 5897 5897 5897 5897 5897 5897 5897 5896 5895 5895 5895 5895 5895 5895 5895 5895 5895 5895 5895 5896 5895 5895 5895 5895 5895 5895
5891 5892 5892 5891 5891 5891 5891 5891 5890 5891 5892 5892 5892 5892 5892 5892 5892 5892 5891 5892 5892 5893 5893 5894 5894 5893 5893 5893 5893 5893 5892 5892 5892 5891 5891 5891 5891 5891 5891 5892 5892 5892 5892 5892 5892 5893 5893 5893 5893
5887 5887 5887 5886 5885 5885 5887 5884 5885 5886 5886 5886 5886 5887 5888 5887 5887 5886 5887 5887 5888 5888 5888 5889 5889 5889 5889 5889 5889 5889 5888 5888 5888 5887 5887 5887 5887 5887 5887 5888 5888 5888 5889 5889 5889 5889 5889 5890 5890
5882 5882 5881 5881 5879 5879 5879 5877 5877 5878 5879 5879 5879 5880 5880 5881 5881 5881 5881 5882 5882 5882 5882 5883 5884 5884 5884 5884 5884 5884 5884 5884 5883 5883 5882 5882 5882 5883 5883 5883 5883 5884 5885 5885 5885 5885 5885 5886 5886
5877 5876 5875 5875 5873 5872 5872 5870 5869 5869 5870 5871 5871 5871 5871 5872 5873 5874 5875 5875 5875 5876 5876 5877 5877 5879 5879 5879 5879 5879 5879 5879 5879 5879 5878 5877 5877 5878 5878 5878 5878 5879 5880 5880 5880 5881 5881 5882 5882
5870 5869 5869 5868 5865 5864 5864 5863 5861 5860 5861 5861 5862 5861 5861 5863 5864 5865 5867 5868 5868 5869 5870 5870 5870 5872 5873 5873 5873 5872 5872 5872 5873 5873 5873 5872 5872 5872 5873 5873 5873 5874 5874 5875 5875 5876 5876 5877 5878
5864 5862 5860 5859 5857 5856 5855 5855 5852 5851 5851 5851 5851 5851 5850 5852 5854 5855 5858 5859 5860 5861 5861 5862 5863 5864 5865 5866 5865 5863 5865 5865 5866 5866 5866 5866 5866 5866 5866 5866 5866 5867 5868 5868 5869 5870 5871 5871 5872
5857 5853 5852 5851 5849 5847 5845 5845 5844 5841 5839 5839 5840 5840 5840 5842 5843 5845 5847 5849 5850 5851 5852 5853 5854 5855 5856 5857 5857 5854 5856 5857 5857 5857 5858 5858 5858 5858 5859 5859 5859 5859 5860 5862 5863 5864 5865 5865 5866
5849 5845 5843 5840 5838 5837 5836 5835 5835 5829 5828 5827 5828 5828 5829 5831 5833 5834 5837 5838 5840 5841 5843 5844 5845 5846 5847 5848 5849 5849 5849 5848 5848 5849 5849 5850 5851 5851 5851 5851 5851 5851 5852 5853 5855 5856 5858 5859 5860
5841 5837 5834 5830 5827 5825 5825 5824 5824 5820 5818 5818 5818 5818 5819 5821 5823 5825 5827 5828 5830 5832 5834 5835 5836 5838 5839 5839 5841 5841 5841 5840 5839 5841 5841 5841 5842 5843 5843 5843 5843 5843 5844 5845 5847 5849 5850 5851 5852
5833 5829 5825 5820 5816 5815 5815 5815 5812 5810 5809 5809 5809 5809 5809 5811 5813 5816 5817 5819 5821 5823 5824 5826 5827 5829 5830 5831 5832 5832 5832 5832 5832 5833 5833 5833 5833 5834 5835 5835 5835 5835 5836 5837 5839 5840 5842 5844 5845
5827 5822 5817 5813 5810 5809 5807 5806 5803 5801 5800 5799 5800 5800 5800 5802 5804 5807 5808 5810 5812 5813 5815 5817 5819 5820 5821 5822 5823 5824 5824 5824 5825 5825 5825 5825 5825 5826 5826 5826 5827 5827 5828 5829 5831 5832 5834 5836 5838
5822 5817 5812 5808 5805 5803 5801 5799 5797 5793 5792 5792 5791 5791 5792 5793 5795 5797 5799 5801 5802 5804 5806 5808 5810 5811 5812 5813 5814 5815 5815 5816 5816 5816 5816 5816 5817 5817 5817 5817 5818 5818 5819 5821 5823 5825 5827 5829 5831
5819 5814 5809 5805 5801 5799 5797 5794 5791 5788 5786 5784 5784 5785 5786 5786 5787 5789 5790 5792 5794 5796 5798 5799 5801 5803 5804 5805 5806 5806 5807 5807 5807 5807 5808 5809 5809 5809 5809 5809 5810 5810 5811 5813 5815 5817 5819 5822 5824
5818 5812 5808 5803 5800 5797 5795 5791 5788 5786 5783 5782 5781 5780 5780 5780 5781 5782 5783 5784 5786 5788 5790 5792 5793 5795 5796 5797 5797 5798 5798 5798 5799 5799 5800 5800 5800 5800 5801 5801 5802 5803 5804 5806 5809 5811 5813 5815 5817
5818 5813 5807 5803 5800 5797 5794 5793 5787 5784 5782 5780 5778 5778 5777 5777 5777 5777 5778 5779 5780 5782 5784 5785 5787 5788 5789 5790 5790 5791 5791 5791 5792 5792 5792 5792 5793 5794 5794 5795 5796 5797 5799 5801 5803 5805 5807 5809 5811
5819 5814 5809 5806 5802 5798 5795 5795 5788 5784 5781 5779 5777 5776 5776 5775 5775 5775 5775 5776 5777 5778 5780 5781 5782 5784 5784 5785 5786 5786 5786 5787 5787 5787 5787 5787 5788 5789 5791 5791 5793 5794 5795 5797 5799 5800 5802 5803 5804